ONEWEB-0057, 45160

Orbit data source: Space-Track

ONEWEB-0057, 45160 is a payload satellite owned by One Web (UK) in LEO that was launched on Thu, 06 Feb 2020 UTC via a SOYUZ-2-1B launch vehicle from the Tyuratam Missile And Space Complex (TTMTR). Payload-class satellites include a variety of spacecraft equipped with specific instruments for various scientific and technological missions. These include communications satellites like Starlink; space stations such as the ISS; scientific satellites like the Hubble; Earth observation satellites from companies like Planet Labs, Umbra, and HawkEye 360; GPS; miniature CubeSats for education and research; and military/defense satellites.

Loading next visibility...
Identifier
45160, 2020-008AF
Orbit
LEO
Country
Flag of UKUK
Related business
Manufacturer
One Web
Mission
Operational Commercial Communications
Bus & Motor
ARROW, Unknown motor
Mass
148 kg wet, ~140 kg dry
Launch date (UTC)
2020-02-06 (6 years ago)
Launch vehicle
SOYUZ-2-1B
Launch site
Tyuratam Missile And Space Complex (TTMTR)
Object type
Payload
Rocket body
Debris
Shape & HBR
Trap Box + 2 Pan, 6.7 m
Radar Cross Section
3.464 m², Large (>1 m²)

Expand to show TLE details & history
Last TLE update: 15 hours ago

TLE from 15 hours ago
0 ONEWEB-0057
1 45160U 20008AF  25347.29343885  .00000070  00000-0  16361-3 0  9996
2 45160  87.8811  73.3321 0001742 111.3393 248.7920 13.10375083284002
Epoch: 2025-12-13T07:02Z
TLE epoch observation values (Epoch: 2025-12-13T07:02:33.116Z)
Latitude
-0.00007°
Longitude
-114.52867°
Altitude
1,225.075 km
Speed
7.242 km/s
True Right ascension
04h 53m 19s
True Declination
0° 00' 00"
Sunlit
Object was in full shadow at epoch
Visualization orbit readout
Latitude
Unknown
Longitude
Unknown
Altitude
Unknown
Speed
Unknown
Apparent Right ascension
Unknown
Apparent Declination
Unknown
Sunlit
N/A
Visualization observer readout
Local Sidereal Time
20:10:50
Azimuth
Unknown
Elevation
Unknown
Doppler factor
Unknown
Orbital elements
Apogee altitude
1,220.152 km
Perigee altitude
1,217.505 km
Semi-major axis
7,596.965 km
Eccentricity
0.00017
Inclination
87.8811°
RAAN
73.3321°
Arg. of periapsis
111.3393°
True anomaly
248.77339°
Mean anomaly
248.792°
Eccentric anomaly
248.7827°
Mean motion
3.2778 °/min
Orbital period
109.83 mins
BSTAR
0.00016361
Loading maneuver chart data...
Computing Atmospheric mass density...
Loading historical data...
Loading historical data...
Loading historical data...
Loading historical data...
Loading historical data...
Loading historical data...
Loading historical data...

Documentation

Showing up to 5 results
|